User: anonymous   Login
Location: Fort Wayne
(41.1310°N, 85.1290°W)
Time: 15:12:35
(UTC-04:00)
Language:

Oscar 19 - Orbit

View from above orbital plane
View from above orbital plane
View from above satellite
View from above satellite

Ground track
Ground track

The orbit data is extracted from the following two-line orbital elements,

1 20442U 90005G   14295.05207980  .00000370  00000-0  15190-3 0   897
2 20442 098.4884 230.3234 0012850 130.4452 229.7855 14.32606754292848
Epoch (UTC): 22 October 2014 01:14:59
Eccentricity: 0.0012850
inclination: 98.4884°
perigee height: 774 km
apogee height: 792 km
right ascension of ascending node: 230.3234°
argument of perigee: 130.4452°
revolutions per day: 14.32606754
mean anomaly at epoch: 229.7855°
orbit number at epoch: 29284

The dashed part of the orbit path shows where the satellite is in the earth's shadow,  

DLR